• In Austria
  • List of Countries
  • For 7 days
  • Water Temperature
  • Satellite Maps
  • Weather Map
  • News
  • Weather Widgets
  • user-avatar
    Login

    Hourly Weather Hurghada

    Today, 18 December, Monday

    Time Temperature Precipitation Wind Pressure Humidity
    00:00 +13°C° 0 mm 1 mps 686 mmHg 55%
    01:00 +13°C° 0 mm 1 mps 686 mmHg 55%
    02:00 +12°C° 0 mm 1 mps 685 mmHg 54%
    03:00 +12°C° 0 mm 1 mps 686 mmHg 53%
    04:00 +12°C° 0 mm 1 mps 686 mmHg 51%
    05:00 +12°C° 0 mm 1 mps 686 mmHg 49%
    06:00 +14°C° 0 mm 1 mps 686 mmHg 43%
    07:00 +15°C° 0 mm 1 mps 687 mmHg 37%
    08:00 +18°C° 0 mm 1 mps 687 mmHg 31%
    09:00 +20°C° 0 mm 1 mps 687 mmHg 26%
    10:00 +22°C° 0 mm 1 mps 688 mmHg 21%
    11:00 +24°C° 0 mm 2 mps 688 mmHg 15%
    12:00 +24°C° 0 mm 2 mps 688 mmHg 15%
    13:00 +25°C° 0 mm 2 mps 687 mmHg 14%
    14:00 +26°C° 0 mm 3 mps 687 mmHg 13%
    15:00 +24°C° 0 mm 2 mps 686 mmHg 17%
    16:00 +21°C° 0 mm 2 mps 686 mmHg 21%
    17:00 +19°C° 0 mm 2 mps 686 mmHg 24%
    18:00 +18°C° 0 mm 2 mps 686 mmHg 26%
    19:00 +17°C° 0 mm 2 mps 686 mmHg 27%
    20:00 +16°C° 0 mm 1 mps 686 mmHg 29%
    21:00 +16°C° 0 mm 1 mps 686 mmHg 27%
    22:00 +16°C° 0 mm 1 mps 686 mmHg 26%
    23:00 +15°C° 0 mm 2 mps 686 mmHg 24%

    Tomorrow, 19 December, Tuesday

    Time Temperature Precipitation Wind Pressure Humidity
    00:00 +15°C° 0 mm 2 mps 686 mmHg 24%
    01:00 +15°C° 0 mm 1 mps 686 mmHg 23%
    02:00 +15°C° 0 mm 1 mps 686 mmHg 23%
    03:00 +15°C° 0 mm 1 mps 685 mmHg 25%
    04:00 +14°C° 0 mm 1 mps 685 mmHg 27%
    05:00 +14°C° 0 mm 1 mps 685 mmHg 29%
    06:00 +15°C° 0 mm 1 mps 686 mmHg 27%
    07:00 +18°C° 0 mm 1 mps 686 mmHg 25%
    08:00 +19°C° 0 mm 1 mps 687 mmHg 22%
    09:00 +20°C° 0 mm 2 mps 687 mmHg 20%
    10:00 +23°C° 0 mm 2 mps 687 mmHg 18%
    11:00 +25°C° 0 mm 3 mps 688 mmHg 16%
    12:00 +25°C° 0 mm 3 mps 687 mmHg 16%
    13:00 +25°C° 0 mm 3 mps 687 mmHg 16%
    14:00 +26°C° 0 mm 3 mps 686 mmHg 16%
    15:00 +24°C° 0 mm 3 mps 686 mmHg 21%
    16:00 +21°C° 0 mm 2 mps 686 mmHg 26%
    17:00 +19°C° 0 mm 2 mps 685 mmHg 30%
    18:00 +19°C° 0 mm 2 mps 685 mmHg 34%
    19:00 +18°C° 0 mm 2 mps 686 mmHg 37%
    20:00 +17°C° 0 mm 2 mps 686 mmHg 40%
    21:00 +16°C° 0 mm 1 mps 686 mmHg 41%
    22:00 +16°C° 0 mm 1 mps 685 mmHg 42%
    23:00 +15°C° 0 mm 1 mps 685 mmHg 43%

    Day after tomorrow, 20 December, Wednesday

    Time Temperature Precipitation Wind Pressure Humidity
    00:00 +15°C° 0 mm 1 mps 685 mmHg 43%
    01:00 +15°C° 0 mm 1 mps 685 mmHg 44%
    02:00 +14°C° 0 mm 1 mps 685 mmHg 44%
    03:00 +14°C° 0 mm 1 mps 684 mmHg 42%
    04:00 +14°C° 0 mm 1 mps 684 mmHg 41%
    05:00 +13°C° 0 mm 1 mps 684 mmHg 39%
    06:00 +15°C° 0 mm 1 mps 685 mmHg 35%
    07:00 +18°C° 0 mm 1 mps 685 mmHg 30%
    08:00 +19°C° 0 mm 1 mps 686 mmHg 26%
    09:00 +20°C° 0 mm 2 mps 687 mmHg 22%
    10:00 +23°C° 0 mm 2 mps 687 mmHg 19%
    11:00 +26°C° 0 mm 3 mps 687 mmHg 15%
    12:00 +26°C° 0 mm 3 mps 687 mmHg 16%
    13:00 +26°C° 0 mm 3 mps 687 mmHg 16%
    14:00 +27°C° 0 mm 4 mps 686 mmHg 16%
    15:00 +25°C° 0 mm 3 mps 686 mmHg 21%
    16:00 +22°C° 0 mm 3 mps 686 mmHg 27%
    17:00 +20°C° 0 mm 2 mps 685 mmHg 33%
    18:00 +19°C° 0 mm 2 mps 685 mmHg 37%
    19:00 +18°C° 0 mm 2 mps 686 mmHg 41%
    20:00 +18°C° 0 mm 2 mps 686 mmHg 45%
    21:00 +17°C° 0 mm 2 mps 686 mmHg 46%
    22:00 +17°C° 0 mm 2 mps 686 mmHg 48%
    23:00 +16°C° 0 mm 2 mps 686 mmHg 49%

    21 December, Thursday

    Time Temperature Precipitation Wind Pressure Humidity
    00:00 +16°C° 0 mm 1 mps 686 mmHg 48%
    01:00 +15°C° 0 mm 1 mps 685 mmHg 48%
    02:00 +14°C° 0 mm 1 mps 685 mmHg 47%
    03:00 +14°C° 0 mm 1 mps 685 mmHg 49%
    04:00 +14°C° 0 mm 1 mps 685 mmHg 51%
    05:00 +14°C° 0 mm 1 mps 685 mmHg 53%
    06:00 +15°C° 0 mm 1 mps 686 mmHg 51%
    07:00 +16°C° 0 mm 2 mps 686 mmHg 49%
    08:00 +18°C° 0 mm 2 mps 687 mmHg 47%
    09:00 +20°C° 0 mm 2 mps 687 mmHg 43%
    10:00 +21°C° 0 mm 2 mps 687 mmHg 39%
    11:00 +24°C° 0 mm 2 mps 688 mmHg 35%
    12:00 +25°C° 0 mm 2 mps 687 mmHg 34%
    13:00 +25°C° 0 mm 3 mps 687 mmHg 33%
    14:00 +26°C° 0 mm 3 mps 686 mmHg 32%
    15:00 +24°C° 0 mm 2 mps 686 mmHg 39%
    16:00 +21°C° 0 mm 2 mps 686 mmHg 46%
    17:00 +20°C° 0 mm 2 mps 685 mmHg 53%
    18:00 +19°C° 0 mm 2 mps 686 mmHg 59%
    19:00 +18°C° 0 mm 2 mps 686 mmHg 65%
    20:00 +17°C° 0 mm 2 mps 686 mmHg 72%
    21:00 +16°C° 0 mm 1 mps 686 mmHg 73%
    22:00 +16°C° 0 mm 1 mps 686 mmHg 74%
    23:00 +15°C° 0 mm 1 mps 685 mmHg 76%

    22 December, Friday

    Time Temperature Precipitation Wind Pressure Humidity
    00:00 +15°C° 0 mm 1 mps 685 mmHg 73%
    01:00 +15°C° 0 mm 1 mps 685 mmHg 70%
    02:00 +14°C° 0 mm 1 mps 685 mmHg 68%
    03:00 +14°C° 0 mm 1 mps 685 mmHg 65%
    04:00 +14°C° 0 mm 1 mps 684 mmHg 63%
    05:00 +13°C° 0 mm 1 mps 684 mmHg 61%
    06:00 +15°C° 0 mm 1 mps 685 mmHg 54%
    07:00 +16°C° 0 mm 1 mps 685 mmHg 48%
    08:00 +19°C° 0 mm 1 mps 686 mmHg 42%
    09:00 +21°C° 0 mm 1 mps 686 mmHg 37%
    10:00 +23°C° 0 mm 2 mps 686 mmHg 33%
    11:00 +24°C° 0 mm 2 mps 687 mmHg 28%
    12:00 +25°C° 0 mm 2 mps 686 mmHg 27%
    13:00 +25°C° 0 mm 2 mps 686 mmHg 27%
    14:00 +26°C° 0 mm 2 mps 685 mmHg 26%
    15:00 +24°C° 0 mm 2 mps 685 mmHg 32%
    16:00 +23°C° 0 mm 2 mps 685 mmHg 38%
    17:00 +20°C° 0 mm 2 mps 684 mmHg 45%
    18:00 +19°C° 0 mm 2 mps 684 mmHg 51%
    19:00 +19°C° 0 mm 1 mps 684 mmHg 58%
    20:00 +18°C° 0 mm 1 mps 684 mmHg 65%
    21:00 +18°C° 0 mm 1 mps 684 mmHg 68%
    22:00 +16°C° 0 mm 1 mps 684 mmHg 72%
    23:00 +15°C° 0 mm 1 mps 684 mmHg 75%

    23 December, Saturday

    Time Temperature Precipitation Wind Pressure Humidity
    00:00 +15°C° 0 mm 1 mps 683 mmHg 76%
    01:00 +15°C° 0 mm 1 mps 683 mmHg 77%
    02:00 +14°C° 0 mm 1 mps 683 mmHg 78%
    03:00 +14°C° 0 mm 1 mps 683 mmHg 78%
    04:00 +14°C° 0 mm 1 mps 683 mmHg 79%
    05:00 +13°C° 0 mm 1 mps 682 mmHg 79%
    06:00 +15°C° 0 mm 1 mps 683 mmHg 73%
    07:00 +16°C° 0 mm 1 mps 683 mmHg 67%
    08:00 +17°C° 0 mm 2 mps 684 mmHg 61%
    09:00 +19°C° 0 mm 2 mps 684 mmHg 54%
    10:00 +21°C° 0 mm 2 mps 684 mmHg 46%
    11:00 +24°C° 0 mm 3 mps 684 mmHg 38%
    12:00 +24°C° 0 mm 3 mps 684 mmHg 38%
    13:00 +25°C° 0 mm 3 mps 683 mmHg 37%
    14:00 +25°C° 0 mm 4 mps 683 mmHg 36%
    15:00 +24°C° 0 mm 3 mps 683 mmHg 43%
    16:00 +22°C° 0 mm 3 mps 682 mmHg 50%
    17:00 +20°C° 0 mm 3 mps 682 mmHg 56%
    18:00 +19°C° 0 mm 2 mps 682 mmHg 63%
    19:00 +18°C° 0 mm 2 mps 682 mmHg 70%
    20:00 +17°C° 0 mm 2 mps 682 mmHg 77%
    21:00 +17°C° 0 mm 2 mps 682 mmHg 78%
    22:00 +17°C° 0 mm 2 mps 682 mmHg 79%
    23:00 +17°C° 0 mm 2 mps 682 mmHg 81%
    Show more